This is the latest recevied weather packets stored in our database for station/object 9W2CHF-4. If no packets are shown the sender has not sent any weather packets the latest 10 day(s).
| Time | Temp. | Humidity | Pressure | Rain* | Wind** | Luminosity | Snow |
|---|---|---|---|---|---|---|---|
| 1777721905 | 33.89° C | 75% | 1008 hPa | - | - | - | - |
| 1777721005 | 33.89° C | 73% | 1007.7 hPa | - | - | - | - |
| 1777720105 | 33.89° C | 71% | 1007.5 hPa | - | - | - | - |
| 1777719205 | 33.89° C | 71% | 1007.2 hPa | - | - | - | - |
| 1777718305 | 33.89° C | 70% | 1007.1 hPa | - | - | - | - |
| 1777717405 | 34.44° C | 69% | 1007.3 hPa | - | - | - | - |
| 1777716505 | 34.44° C | 70% | 1007.1 hPa | - | - | - | - |
| 1777715605 | 34.44° C | 70% | 1006.9 hPa | - | - | - | - |
| 1777714704 | 34.44° C | 69% | 1007.2 hPa | - | - | - | - |
| 1777713804 | 34.44° C | 68% | 1007.2 hPa | - | - | - | - |
| 1777712903 | 34.44° C | 68% | 1007.3 hPa | - | - | - | - |
| 1777712006 | 34.44° C | 70% | 1007.2 hPa | - | - | - | - |
| 1777711106 | 34.44° C | 69% | 1007.3 hPa | - | - | - | - |
| 1777710206 | 34.44° C | 70% | 1007.5 hPa | - | - | - | - |
| 1777709306 | 34.44° C | 69% | 1007.6 hPa | - | - | - | - |
| 1777708406 | 33.89° C | 72% | 1007.7 hPa | - | - | - | - |
| 1777707506 | 34.44° C | 70% | 1007.8 hPa | - | - | - | - |
| 1777706606 | 34.44° C | 71% | 1008 hPa | - | - | - | - |
| 1777705706 | 33.89° C | 73% | 1008 hPa | - | - | - | - |
| 1777704806 | 33.89° C | 73% | 1008.5 hPa | - | - | - | - |
| 1777703906 | 33.89° C | 75% | 1008.6 hPa | - | - | - | - |
| 1777703006 | 33.33° C | 76% | 1008.9 hPa | - | - | - | - |
| 1777702106 | 33.33° C | 76% | 1009.3 hPa | - | - | - | - |
| 1777701206 | 33.33° C | 77% | 1009.6 hPa | - | - | - | - |
| 1777700306 | 33.89° C | 76% | 1009.9 hPa | - | - | - | - |
* Rain since midnight (hover to see other rain measurements)
** Current wind speed in m/s (hover to see current wind gust speed)